Find Starlink 11446

NORAD ID: 62416 Int'l Des: 2024-249 Owner: SPXS Country: US Constellation: starlink operational
別名: STARLINK-11446 [DTC] celestrak
LEOCIRCULAR

現在のビュー

3D地球を読み込み中...

About Starlink 11446

Starlink 11446 (NORAD 62416) is a starlink constellation satellite (v2 mini d2c) launched Dec 23, 2024 by SPXS of US. It operates in LEO, CIRCULAR orbit with a mass of 960.00 kg.

次回通過

Passes for default location (London). Set your location on the main map for personalized predictions.

高度履歴

Loading altitude history...

軌道要素

1 62416U 24249H 26238.00002142 .00143617 00000-0 11012-2 0 9999
2 62416 42.9991 226.6692 0001680 263.6749 96.3927 15.70888523 96110
Epoch: Aug 26, 2026 • Age: 9 hours

現在のステータス

高度 355.4 km
遠地点 / 近地点 N/A
速度 7.70 km/s
衛星直下点 8.69°N, 120.95°E
打ち上げ日 Dec 23, 2024
運用期間 1.6 years
タイプ internet

技術仕様

分類 Payload
質量 960.00 kg
乾燥質量 910.00 kg
総質量 960.00 kg
長さ 0.30 m
直径 4.10 m
スパン 29.00 m
形状 Box + pan
製造者 SPXS
バスタイプ Starlink V2MD
フェーズステータス In Orbit
所有者/国 SPXS/US

Most Searched